TimeEDT,TemperatureF,Dew PointF,Humidity,Sea Level PressureIn,VisibilityMPH,Wind Direction,Wind SpeedMPH,Gust SpeedMPH,PrecipitationIn,Events,Conditions,WindDirDegrees,DateUTC
12:15 AM,67.3,61.7,82,30.08,10.0,Calm,Calm,-,N/A,,Clear,0,2013-10-05 04:15:00
12:35 AM,66.2,61.3,84,30.08,7.0,Calm,Calm,-,N/A,,Clear,0,2013-10-05 04:35:00
12:55 AM,64.4,59.9,85,30.07,5.0,SSE,3.5,-,N/A,,Clear,150,2013-10-05 04:55:00
1:15 AM,63.5,59.4,86,30.06,5.0,SSE,4.6,-,N/A,,Clear,150,2013-10-05 05:15:00
1:35 AM,63.7,59.7,87,30.06,7.0,South,5.8,-,N/A,,Clear,170,2013-10-05 05:35:00
1:55 AM,64.4,60.3,86,30.07,10.0,South,4.6,-,N/A,,Clear,190,2013-10-05 05:55:00
2:15 AM,64.8,60.1,85,30.07,10.0,South,5.8,-,N/A,,Clear,190,2013-10-05 06:15:00
2:35 AM,65.8,61.0,84,30.07,10.0,South,5.8,-,N/A,,Clear,190,2013-10-05 06:35:00
2:55 AM,66.2,60.8,83,30.07,10.0,SSW,4.6,-,N/A,,Clear,200,2013-10-05 06:55:00
3:15 AM,65.8,60.6,83,30.06,10.0,SSW,5.8,-,N/A,,Clear,200,2013-10-05 07:15:00
3:35 AM,66.2,60.8,83,30.06,10.0,SSW,4.6,-,N/A,,Scattered Clouds,200,2013-10-05 07:35:00
3:55 AM,65.5,60.4,84,30.06,10.0,SSW,3.5,-,N/A,,Scattered Clouds,210,2013-10-05 07:55:00
4:15 AM,65.1,60.1,84,30.07,10.0,SW,3.5,-,N/A,,Mostly Cloudy,230,2013-10-05 08:15:00
4:35 AM,64.6,59.9,85,30.06,7.0,SW,3.5,-,N/A,,Mostly Cloudy,220,2013-10-05 08:35:00
4:55 AM,64.6,60.1,85,30.06,7.0,SSW,4.6,-,N/A,,Overcast,200,2013-10-05 08:55:00
5:15 AM,65.7,60.8,84,30.06,10.0,SSW,5.8,-,N/A,,Mostly Cloudy,210,2013-10-05 09:15:00
5:35 AM,65.7,60.8,84,30.06,10.0,Calm,Calm,-,N/A,,Scattered Clouds,0,2013-10-05 09:35:00
5:55 AM,66.0,61.0,84,30.07,10.0,South,3.5,-,N/A,,Scattered Clouds,170,2013-10-05 09:55:00
6:15 AM,66.2,60.8,83,30.07,10.0,South,3.5,-,N/A,,Scattered Clouds,170,2013-10-05 10:15:00
6:35 AM,65.5,60.4,84,30.07,10.0,South,4.6,-,N/A,,Mostly Cloudy,190,2013-10-05 10:35:00
6:55 AM,64.9,60.1,84,30.06,7.0,SSE,3.5,-,N/A,,Scattered Clouds,160,2013-10-05 10:55:00
7:15 AM,64.8,60.1,85,30.07,10.0,South,4.6,-,N/A,,Clear,180,2013-10-05 11:15:00
7:35 AM,64.6,59.9,85,30.07,7.0,SSE,4.6,-,N/A,,Clear,160,2013-10-05 11:35:00
7:55 AM,65.1,60.6,85,30.07,10.0,South,4.6,-,N/A,,Mostly Cloudy,180,2013-10-05 11:55:00
8:15 AM,66.4,61.5,84,30.07,10.0,South,3.5,-,N/A,,Overcast,180,2013-10-05 12:15:00
8:35 AM,67.3,62.1,83,30.07,10.0,South,5.8,-,N/A,,Mostly Cloudy,170,2013-10-05 12:35:00
8:55 AM,68.2,62.6,82,30.07,10.0,South,5.8,-,N/A,,Mostly Cloudy,170,2013-10-05 12:55:00
9:15 AM,69.3,63.3,81,30.07,10.0,South,5.8,-,N/A,,Overcast,180,2013-10-05 13:15:00
9:35 AM,71.1,64.0,78,30.07,10.0,South,5.8,-,N/A,,Mostly Cloudy,190,2013-10-05 13:35:00
9:55 AM,73.8,64.2,72,30.07,10.0,SSW,6.9,-,N/A,,Mostly Cloudy,200,2013-10-05 13:55:00
10:15 AM,74.3,64.2,71,30.06,10.0,South,5.8,-,N/A,,Overcast,180,2013-10-05 14:15:00
10:35 AM,74.8,64.2,69,30.06,10.0,SSW,10.4,-,N/A,,Mostly Cloudy,200,2013-10-05 14:35:00
10:55 AM,77.0,64.4,65,30.06,10.0,SSW,9.2,-,N/A,,Scattered Clouds,200,2013-10-05 14:55:00
11:15 AM,78.1,64.2,62,30.06,10.0,SSW,6.9,-,N/A,,Scattered Clouds,200,2013-10-05 15:15:00
11:35 AM,78.3,64.2,62,30.06,10.0,South,8.1,-,N/A,,Overcast,190,2013-10-05 15:35:00
11:55 AM,76.6,64.9,67,30.06,10.0,South,6.9,-,N/A,Rain,Light Rain,180,2013-10-05 15:55:00
12:15 PM,74.8,66.2,74,30.05,10.0,South,5.8,-,N/A,,Overcast,180,2013-10-05 16:15:00
12:35 PM,75.6,66.9,74,30.04,10.0,South,5.8,-,N/A,,Overcast,170,2013-10-05 16:35:00
12:55 PM,79.3,66.7,65,30.03,10.0,South,6.9,-,N/A,,Scattered Clouds,190,2013-10-05 16:55:00
1:15 PM,81.0,65.8,60,30.03,10.0,South,10.4,16.1,N/A,,Mostly Cloudy,180,2013-10-05 17:15:00
1:35 PM,78.4,66.7,67,30.02,7.0,WSW,5.8,-,N/A,,Overcast,240,2013-10-05 17:35:00
1:55 PM,80.2,67.8,66,30.01,10.0,SW,12.7,18.4,N/A,,Mostly Cloudy,230,2013-10-05 17:55:00
2:15 PM,81.7,64.8,56,30.00,10.0,SW,15.0,-,N/A,,Mostly Cloudy,230,2013-10-05 18:15:00
2:35 PM,81.5,64.6,56,29.99,10.0,WSW,13.8,17.3,N/A,,Mostly Cloudy,240,2013-10-05 18:35:00
2:55 PM,82.6,63.5,52,29.99,10.0,SW,15.0,19.6,N/A,,Scattered Clouds,230,2013-10-05 18:55:00
3:15 PM,83.7,62.6,49,29.99,10.0,SSW,17.3,23.0,N/A,,Scattered Clouds,210,2013-10-05 19:15:00
3:35 PM,84.0,61.7,47,29.99,10.0,SSW,11.5,18.4,N/A,,Mostly Cloudy,210,2013-10-05 19:35:00
3:55 PM,82.6,62.1,50,29.98,10.0,SSW,12.7,-,N/A,,Mostly Cloudy,210,2013-10-05 19:55:00
4:15 PM,82.0,62.2,51,29.98,10.0,SSW,15.0,20.7,N/A,,Mostly Cloudy,210,2013-10-05 20:15:00
4:35 PM,81.7,62.6,52,29.97,10.0,SSW,15.0,-,N/A,,Scattered Clouds,200,2013-10-05 20:35:00
4:55 PM,81.0,63.0,54,29.97,10.0,South,11.5,-,N/A,,Scattered Clouds,190,2013-10-05 20:55:00
5:15 PM,80.1,63.5,57,29.98,10.0,South,11.5,-,N/A,,Mostly Cloudy,190,2013-10-05 21:15:00
5:35 PM,79.3,64.4,60,29.97,10.0,South,9.2,-,N/A,,Overcast,190,2013-10-05 21:35:00
5:55 PM,79.5,64.4,60,29.97,10.0,SSW,13.8,19.6,N/A,,Mostly Cloudy,200,2013-10-05 21:55:00
6:15 PM,79.2,64.4,60,29.98,10.0,SSW,9.2,-,N/A,,Mostly Cloudy,210,2013-10-05 22:15:00
6:35 PM,78.4,64.6,62,29.97,10.0,SSW,11.5,-,N/A,,Scattered Clouds,200,2013-10-05 22:35:00
6:55 PM,77.7,64.6,64,29.98,10.0,SSW,8.1,-,N/A,,Clear,210,2013-10-05 22:55:00
7:15 PM,76.6,64.8,67,29.98,10.0,SSW,12.7,-,N/A,,Clear,200,2013-10-05 23:15:00
7:35 PM,76.1,64.4,67,29.98,10.0,SW,8.1,-,N/A,,Clear,220,2013-10-05 23:35:00
7:55 PM,74.8,64.6,70,29.98,10.0,SSW,3.5,-,N/A,,Clear,210,2013-10-05 23:55:00
8:15 PM,73.9,64.8,73,29.98,10.0,SSW,5.8,-,N/A,,Clear,200,2013-10-06 00:15:00
8:35 PM,73.6,65.1,75,29.98,10.0,South,4.6,-,N/A,,Clear,190,2013-10-06 00:35:00
8:55 PM,72.7,64.9,77,29.98,10.0,SSW,3.5,-,N/A,,Clear,210,2013-10-06 00:55:00
9:15 PM,71.6,64.6,78,29.98,10.0,SW,3.5,-,N/A,,Clear,230,2013-10-06 01:15:00
9:35 PM,70.7,64.4,80,29.98,10.0,Calm,Calm,-,N/A,,Clear,0,2013-10-06 01:35:00
9:55 PM,70.5,64.4,81,29.99,10.0,Calm,Calm,-,N/A,,Scattered Clouds,0,2013-10-06 01:55:00
10:15 PM,70.3,64.8,82,30.00,10.0,WSW,3.5,-,N/A,,Mostly Cloudy,240,2013-10-06 02:15:00
10:35 PM,70.3,64.8,82,29.99,10.0,SSW,3.5,-,N/A,,Mostly Cloudy,210,2013-10-06 02:35:00
10:55 PM,70.2,64.9,83,29.98,10.0,SSW,3.5,-,N/A,,Mostly Cloudy,210,2013-10-06 02:55:00
11:15 PM,70.0,64.9,84,29.97,10.0,SSE,3.5,-,N/A,,Scattered Clouds,160,2013-10-06 03:15:00
11:35 PM,69.6,64.8,84,29.97,7.0,SSE,3.5,-,N/A,Rain,Light Rain,160,2013-10-06 03:35:00
11:55 PM,69.3,64.8,86,29.96,7.0,SSE,4.6,-,N/A,Rain,Rain,160,2013-10-06 03:55:00